Weather in Mnogovershinny

Russia / Khabarovsk Krai     53°56′01″N   139°55′26″E
temp.,
°C
wind,
m/s
gust,
m/s
humid.,
%
clouds,
%
prec.,
mm/h
press.,
hPa
HPBL,
m
27 february, sat
sat2701:00−22wsw227715 0.0 102720
04:00−22w239310 0.0 102725
07:00−20w23863 0.0 102724
10:00−16wsw12822 0.0 102790
13:00−12sw12800 0.0 1026292
16:00−13s02890 0.0 1024225
19:00−17s229791 0.0 102427
22:00−17s229296 0.0 102232
28 february, sun
sun2801:00−16sse2293100 0.0 101858
04:00−16se2397100 0.3 101488
07:00−16n0197100 0.9 101340
10:00−15nnw2295100 1.8 1012230
13:00−15nnw3493100 0.3 1012447
16:00−17nw3492100 0.5 1012431
19:00−21wnw3492100 0.0 101485
22:00−22wnw3594100 0.1 1014151
1 march, mon
mon101:00−22wnw359699 0.0 1014168
04:00−20wnw3897100 0.3 1016402
07:00−21wnw3695100 0.2 1017272
10:00−22w4685100 0.3 1019500
13:00−21w5107869 0.0 1019878
16:00−22w5127946 0.0 1020841
19:00−26w598830 0.0 1021315
22:00−26w5129127 0.0 1021447
2 march, tue
tue201:00−27w4119218 0.0 1021371
04:00−28w4108925 0.0 1022400
07:00−29wsw512853 0.0 1023434
10:00−25w612802 0.0 1023967
13:00−23w812753 0.0 10241216
16:00−23w7117634 0.0 10241377
19:00−27wsw3687100 0.0 1024104
22:00−27wsw349382 0.0 102464
3 march, wed
wed301:00−29wsw34924 0.0 102373
04:00−29wsw39852 0.0 1023219
07:00−28wsw47830 0.0 1022159
10:00−25w49800 0.0 1021455
13:00−20w48620 0.0 10191095
16:00−19w25620 0.0 1018820
19:00−25s128453 0.0 101720
22:00−24ssw018977 0.0 101620